Tracking 18852 objects as of 23-Nov-2017
HD Live streaming from Space Station
objects crossing your sky now

SJ-11-03

Track SJ-11-03 now!
10-day predictions
SJ-11-03 is classified as:


NORAD ID: 37730
Int'l Code: 2011-030A
Perigee: 691.9 km
Apogee: 704.4 km
Inclination: 98.0 °
Period: 98.6 minutes
Semi major axis: 7069 km
RCS: 2.5767 m2 (large)
Launch date: July 6, 2011
Source: People's Republic of China (PRC)
Launch site: Jiuquan Satellite Launch Center, China (JSC)

SJ-11-03, developed by China Spacesat Co. Ltd under China Aerospace Science and Technology Corporation, will be used to conduct space scientific experiments.
aabbcc
Your satellite tracking list
Your tracking list is empty




NASA's NSSDC Master Catalog

Two Line Element Set (TLE):
1 37730U 11030A   17327.19086270  .00000110  00000-0  31907-4 0  9994
2 37730  98.0130  31.2196 0008888 168.0481 192.0944 14.60668524340250
Source of the keplerian elements: AFSPC